Home   Weather   Izmir   Past weeks

Flag for Turkey Past Weather in Izmir, Turkey — Yesterday and Last 2 Weeks

70 °F

Passing clouds.

Feels Like: 70 °F
Forecast: 57 / 76 °F
Wind: 22 mph from Northeast

Location: Izmir / Adnan Menderes

Current Time: Oct 24, 2016 at 7:08:07 PM

Latest Report: Oct 24, 2016 at 6:20 PM

Visibility: N/A

Pressure: 30.09 "Hg

Humidity: 50%

Dew Point: 50 °F

Location of IzmirLocation

Past Weather in Izmir — Graph


Izmir Temperature Yesterday

Maximum temperature yesterday: 77 °F (at 1:50 PM)
Minimum temperature yesterday: 55 °F (at 1:20 AM)
Average temperature yesterday: 66 °F

High & Low Weather Summary for the Past Weeks

High82 °F (Oct 12, 12:50 PM)94% (Oct 23, 1:50 AM)30.15 "Hg (Oct 23, 1:50 AM)
Low45 °F (Oct 21, 5:50 AM)24% (Oct 16, 1:50 PM)29.77 "Hg (Oct 12, 3:20 AM)
Average65 °F58%30.03 "Hg
* Reported Oct 9 5:20 PM — Oct 24 5:50 PM, Izmir, Weather by CustomWeather, © 2016

Note: Actual official high and low records may vary slightly from our data, if they occured in-between our weather recording intervals... More about our weather records


Izmir Weather History for the Previous 24 Hours

Scroll right to see more
Time TempWeatherWind HumidityBarometerVisibility
5:50 PM
Mon, Oct 24
72 °FPassing clouds.18 mph47%30.09 "HgN/A
5:20 PM73 °FPassing clouds.18 mph44%30.09 "HgN/A
4:50 PM73 °FPassing clouds.18 mph44%30.09 "HgN/A
4:20 PM73 °FPassing clouds.20 mph44%30.09 "HgN/A
3:50 PM75 °FPassing clouds.21 mph41%30.09 "HgN/A
3:20 PM75 °FScattered clouds.21 mph41%30.09 "HgN/A
2:50 PM75 °FScattered clouds.22 mph41%30.09 "HgN/A
2:20 PM75 °FPassing clouds.23 mph41%30.09 "HgN/A
1:50 PM73 °FPassing clouds.21 mph41%30.12 "HgN/A
1:20 PM73 °FSunny.22 mph44%30.12 "Hg10 mi
12:50 PM73 °FSunny.22 mph44%30.12 "Hg10 mi
12:20 PM73 °FSunny.18 mph47%30.12 "Hg10 mi
11:50 AM72 °FSunny.25 mph50%30.12 "Hg10 mi
11:20 AM70 °FSunny.18 mph53%30.12 "Hg10 mi
10:50 AM66 °FSunny.12 mph60%30.15 "Hg10 mi
10:20 AM68 °FSunny.14 mph56%30.15 "Hg10 mi
9:50 AM66 °FSunny.15 mph60%30.15 "Hg10 mi
9:20 AM66 °FSunny.16 mph60%30.15 "Hg10 mi
8:50 AM66 °FSunny.17 mph60%30.12 "Hg10 mi
8:20 AM64 °FSunny.18 mph64%30.12 "Hg10 mi
7:50 AM64 °FSunny.18 mph64%30.12 "Hg10 mi
7:20 AM63 °FClear.18 mph68%30.09 "Hg10 mi
6:50 AM63 °FClear.13 mph68%30.09 "Hg10 mi
6:20 AM61 °FClear.10 mph77%30.09 "Hg10 mi
5:50 AM61 °FClear.12 mph77%30.09 "Hg10 mi
5:20 AM61 °FClear.10 mph77%30.09 "Hg10 mi
4:50 AM61 °FClear.13 mph83%30.09 "Hg10 mi
4:20 AM61 °FClear.12 mph83%30.09 "Hg10 mi
3:50 AM61 °FClear.13 mph83%30.09 "Hg10 mi
3:20 AM63 °FClear.7 mph77%30.09 "Hg10 mi
2:50 AM63 °FClear.8 mph83%30.09 "Hg10 mi
2:20 AM61 °FPassing clouds.3 mph83%30.09 "HgN/A
1:50 AM59 °FClear.2 mph88%30.09 "Hg10 mi
1:20 AM59 °FClear.2 mph82%30.09 "Hg10 mi
12:50 AM61 °FClear.No wind77%30.09 "Hg10 mi
12:20 AM61 °FPassing clouds.3 mph77%30.09 "HgN/A
11:50 PM
Sun, Oct 23
61 °FClear.2 mph77%30.09 "Hg10 mi
11:20 PM64 °FPassing clouds.7 mph78%30.09 "HgN/A
10:50 PM66 °FClear.10 mph73%30.09 "Hg10 mi
10:20 PM66 °FClear.12 mph73%30.09 "Hg10 mi
9:50 PM66 °FClear.13 mph68%30.09 "Hg10 mi
9:20 PM66 °FClear.14 mph68%30.07 "Hg10 mi
8:50 PM66 °FClear.14 mph73%30.07 "Hg10 mi
8:20 PM68 °FClear.15 mph69%30.07 "Hg10 mi
7:50 PM68 °FClear.13 mph69%30.07 "Hg10 mi
7:20 PM68 °FClear.15 mph69%30.07 "Hg10 mi
Weather by CustomWeather, © 2016

See weather overviewHow to use our weather pages